This demonstration page uses our WeatherBlox Daily Observations layout. Learn more.

Left ArrowRight Arrow

38.88101, -77.10428

Hourly Observations for October 14, 2021

Temp ( °F °C ) Dew Point ( °F °C ) Humidity (%) Winds ( mph kmh ) Pressure ( in mb ) Visibility ( mi km ) Precip ( " mm )
12:52 am 00:52 Mostly Cloudy 67 19.4 64 17.8 91 91 SW 3 6 30.01 1016 10 16 N/A
1:52 am 01:52 Mostly Cloudy 66 18.9 63 17.2 90 90 SSW 3 6 30.00 1016 10 16 N/A
2:52 am 02:52 Mostly Clear 65 18.3 62 16.7 90 90 SSW 6 9 29.99 1016 7 11 N/A
3:52 am 03:52 Mostly Clear 64 17.8 62 16.7 93 93 SSW 5 7 29.98 1015 8 13 N/A
4:52 am 04:52 Mostly Clear 63 17.2 60 15.6 90 90 SW 3 6 29.98 1015 7 11 N/A
5:52 am 05:52 Mostly Clear 64 17.8 61 16.1 90 90 N N/A 29.99 1016 8 13 N/A
6:22 am 06:22 Partly Cloudy 62 16.7 60 15.6 93 93 N 7 11 30.00 1016 7 11 N/A
6:52 am 06:52 Mostly Cloudy 62 16.7 60 15.6 93 93 N 5 7 30.00 1016 7 11 N/A
7:52 am 07:52 Partly Cloudy with Mist and Fog 63 17.2 60 15.6 90 90 NNW 7 11 30.01 1016 5 8 N/A
8:52 am 08:52 Mostly Cloudy 66 18.9 61 16.1 84 84 N 9 15 30.03 1017 8 13 N/A
9:52 am 09:52 Mostly Cloudy 69 20.6 61 16.1 76 76 NNW 6 9 30.03 1017 10 16 N/A
10:52 am 10:52 Mostly Cloudy 72 22.2 61 16.1 68 68 N 7 11 30.03 1017 10 16 N/A
11:52 am 11:52 Mostly Cloudy 77 25 61 16.1 58 58 N 8 13 30.02 1017 10 16 N/A
12:52 pm 12:52 Mostly Cloudy 78 25.6 59 15 52 52 N 9 15 30.00 1016 10 16 N/A
1:52 pm 13:52 Mostly Cloudy 81 27.2 59 15 47 47 NNW 8 13 29.98 1015 10 16 N/A
2:52 pm 14:52 Mostly Cloudy 81 27.2 57 13.9 44 44 N 9 15 29.96 1015 10 16 N/A
3:52 pm 15:52 Mostly Cloudy 81 27.2 55 12.8 41 41 N 9 15 29.94 1014 10 16 N/A
4:52 pm 16:52 Mostly Cloudy 79 26.1 55 12.8 44 44 N 7 11 29.94 1014 10 16 N/A
5:52 pm 17:52 Mostly Cloudy 79 26.1 56 13.3 45 45 NW 6 9 29.95 1014 10 16 N/A
6:52 pm 18:52 Partly Cloudy 76 24.4 57 13.9 52 52 N N/A 29.94 1014 10 16 N/A
7:52 pm 19:52 Mostly Clear 75 23.9 58 14.4 55 55 WNW 7 11 29.96 1014 10 16 N/A
8:52 pm 20:52 Clear 69 20.6 61 16.1 76 76 SE 3 6 29.95 1014 10 16 N/A
9:52 pm 21:52 Mostly Clear 68 20 62 16.7 81 81 SSW 3 6 29.96 1014 10 16 N/A
10:52 pm 22:52 Partly Cloudy 69 20.6 61 16.1 76 76 S 3 6 29.96 1015 10 16 N/A
11:52 pm 23:52 Partly Cloudy 68 20 60 15.6 76 76 SW 3 6 29.96 1015 10 16 N/A

Powered by AerisWeather